{"data":{"norad_id":67867,"intl_designator":"2026-034T","name":"STARLINK-36761","alt_names":[],"object_type":"PAYLOAD","status":"ACTIVE","operator":null,"country":"US","launch_date":"2026-02-20","launch_site_code":"AFETR","launch_vehicle":null,"mission":null,"orbit_class":"UNKNOWN","rcs_meters":null,"size_class":null,"mass_kg":null,"dimensions":null,"purposes":["comms"],"wikipedia_slug":null,"has_3d_model":false,"image_url":null,"decayed_at":null,"tle_current":{"epoch":"2026-09-19T22:00:20.806272Z","epoch_age_seconds":113686,"freshness":"FRESH","line1":"1 67867U 26034T   26262.91690748  .00014810  00000+0  44852-3 0  9990","line2":"2 67867  53.1578  20.5968 0001203  90.7424 269.3717 15.34404517 33798","mean_motion":15.34404517,"eccentricity":0.0001203,"inclination_deg":53.1578,"raan_deg":20.5968,"arg_perigee_deg":90.7424,"mean_anomaly_deg":269.3717,"bstar":0.00044852,"rev_number":3379,"period_min":93.847481811082,"perigee_km":461.86686329831,"apogee_km":463.51276622994,"semimajor_km":6840.8268147641,"source":"CELESTRAK","updated_at":"2026-09-20T09:00:43.692043Z"}}}